This is the latest recevied weather packets stored in our database for station/object WZ8H. If no packets are shown the sender has not sent any weather packets the latest 1 day(s).
| Time | Temp. | Humidity | Pressure | Rain* | Wind** | Luminosity | Snow |
|---|---|---|---|---|---|---|---|
| 1836274640 | 21.11° C | 89% | 1019.8 hPa | 0 mm | 4.92 m/s, 57° | 0 W/m² | - |
| 1836274543 | 21.11° C | 89% | 1019.8 hPa | 0 mm | 4.92 m/s, 108° | 0 W/m² | - |
| 1836274315 | 21.11° C | 89% | 1019.8 hPa | 0 mm | 4.92 m/s, 119° | 0 W/m² | - |
| 1836274215 | 21.11° C | 89% | 1019.8 hPa | 0 mm | 4.47 m/s, 88° | 0 W/m² | - |
| 1836274009 | 21.11° C | 90% | 1019.7 hPa | 0 mm | 4.92 m/s, 105° | 0 W/m² | - |
| 1778036182 | 8.89° C | 95% | 1008.5 hPa | 2.29 mm | 0 m/s | 0 W/m² | - |
| 1778035878 | 8.89° C | 95% | 1008.7 hPa | 2.29 mm | 0 m/s | 0 W/m² | - |
| 1778035553 | 8.89° C | 95% | 1008.6 hPa | 2.29 mm | 0 m/s | 0 W/m² | - |
| 1778035246 | 8.89° C | 95% | 1008.4 hPa | 2.29 mm | 0 m/s | 0 W/m² | - |
| 1778034946 | 8.89° C | 95% | 1008.6 hPa | 2.29 mm | 0 m/s | 0 W/m² | - |
| 1778034635 | 9.44° C | 95% | 1008.5 hPa | 2.03 mm | 0 m/s | 0 W/m² | - |
| 1778034332 | 9.44° C | 95% | 1008.4 hPa | 2.03 mm | 0 m/s | 0 W/m² | - |
| 1778034031 | 9.44° C | 95% | 1008.5 hPa | 1.78 mm | 0 m/s | 0 W/m² | - |
| 1778033727 | 8.89° C | 95% | 1008.4 hPa | 1.52 mm | 0 m/s | 0 W/m² | - |
| 1778033435 | 8.89° C | 94% | 1008.3 hPa | 1.52 mm | 0 m/s | 0 W/m² | - |
| 1778033107 | 9.44° C | 94% | 1008.2 hPa | 1.27 mm | 0 m/s | 0 W/m² | - |
| 1778032809 | 9.44° C | 94% | 1008.2 hPa | 1.02 mm | 0 m/s | 0 W/m² | - |
| 1778032476 | 9.44° C | 94% | 1008.3 hPa | 1.02 mm | 0 m/s | 0 W/m² | - |
| 1778032172 | 9.44° C | 95% | 1008.1 hPa | 1.02 mm | 0 m/s | 0 W/m² | - |
| 1778031872 | 9.44° C | 95% | 1008.2 hPa | 0.76 mm | 0 m/s | 0 W/m² | - |
| 1778031546 | 9.44° C | 95% | 1008 hPa | 1.02 mm | 0 m/s | 0 W/m² | - |
| 1778031227 | 9.44° C | 94% | 1007.9 hPa | 0.76 mm | 0 m/s | 0 W/m² | - |
| 1778030901 | 9.44° C | 94% | 1007.9 hPa | 1.02 mm | 0 m/s | 0 W/m² | - |
| 1778030593 | 9.44° C | 94% | 1007.6 hPa | 1.27 mm | 0 m/s | 0 W/m² | - |
| 1778030266 | 9.44° C | 94% | 1007.7 hPa | 1.52 mm | 0 m/s | 0 W/m² | - |
* Rain latest hour (hover to see other rain measurements)
** Current wind speed in m/s (hover to see current wind gust speed)